Skip Page Navigation
NASA JPL Caltech
NASA Logo - Jet Propulsion Laboratory + View the NASA Portal
+ Center for Near-Earth Object Studies
JPL Home Earth Solar System Stars & Galaxies Technology
JPL Solar System Dynamics
BODIES ORBITS EPHEMERIDES TOOLS PHYSICAL DATA DISCOVERY FAQ SITE MAP
IMPORTANT: The SSD Announcement email list is now available. Major changes are coming in the near future, including possible hostname and/or URL changes. To be notified of such changes, subscribe to this email list.

Please visit this page for more details.


JPL Small-Body Database Browser
Search: [ help ]  
410247 (2007 TB72)
Classification: Main-belt Asteroid          SPK-ID: 2410247
Ephemeris | Orbit Diagram | Orbital Elements | Mission Design | Physical Parameters | Discovery Circumstances ]

[ hide orbit diagram ]

For accurate long-term ephemerides, please instead use our Horizons system.This orbit viewer was implemented using two-body methods, and hence should not be used for determining accurate long-term trajectories (over several years or decades) or planetary encounter circumstances.


[ revert to old Java-based viewer ]

Orbital Elements at Epoch 2459000.5 (2020-May-31.0) TDB
Reference: JPL 12 (heliocentric ecliptic J2000)
 Element Value Uncertainty (1-sigma)   Units 
e .1440692945593526 5.7137e-08  
a 2.296879627103654 1.7482e-08 au
q 1.965969799539082 1.3152e-07 au
i 7.597142928324478 6.8323e-06 deg
node 32.31906801866303 3.7326e-05 deg
peri 40.2145679008017 4.5151e-05 deg
M 200.4715273206465 2.4648e-05 deg
tp 2459563.931971291100
(2021-Dec-15.43197129)
9.0787e-05 TDB
period 1271.469012760424
3.48
1.4516e-05
3.974e-08
d
yr
n .2831370614517941 3.2326e-09 deg/d
Q 2.627789454668227 2.0001e-08 au
  Orbit Determination Parameters
   # obs. used (total)      193  
   data-arc span      6727 days (18.42 yr)  
   first obs. used      2000-11-01  
   last obs. used      2019-04-03  
   planetary ephem.      DE431  
   SB-pert. ephem.      SB431-N16  
   condition code      0  
   norm. resid. RMS      .60537  
   source      ORB  
   producer      Otto Matic  
   solution date      2019-Jul-14 13:18:13  

Additional Information
 Earth MOID = .986703 au 
 Jupiter MOID = 2.65806 au 
 T_jup = 3.569 
[ show covariance matrix ]

Ephemeris | Orbit Diagram | Orbital Elements | Mission Design | Physical Parameters | Discovery Circumstances ]

Physical Parameter Table
Parameter Symbol Value Units Sigma Reference Notes
absolute magnitude H 17.5   n/a MPO419023  

410247 (2007 TB72)          Discovered 2007-Oct-14 by Bickel, W. at Bergisch Gladbach
Reference: Last Updated: 2014-10-09

Alternate Designations
 2007 TB72 = 2000 VB19 
Ephemeris | Orbit Diagram | Orbital Elements | Mission Design | Physical Parameters | Discovery Circumstances ]
ABOUT SSD CREDITS/AWARDS PRIVACY/COPYRIGHT GLOSSARY LINKS
FirstGov 2020-Apr-08 22:50 UT
(server date/time)  
NASA Home Page
Site Manager:   Ryan S. Park
Webmaster  Alan B. Chamberlin